Location: Silent Lake
(44.9206°N, 78.0708°W)
Time: 13:14:50
(UTC-04:00)

Cosmos 2344 - Pass Details

Date: 19 April 2018
Orbit: 1273 x 2969 km, 63.3° (Epoch: 20 September)

Event Time Altitude Azimuth Distance (km) Brightness Sun altitude
Exits shadow 23:12:32 48° 188° (S) 1,620 3.8 -27.5°
Maximum altitude 23:14:47 71° 122° (ESE) 1,368 3.4 -27.8°
Drops below altitude 10° 23:23:07 10° 41° (NE) 3,619 6.1 -28.5°
Sets 23:26:20 0° 39° (NE) 4,771 6.8 -28.8°
